Home > Weather > Winchester > Past weeks

Flag for United Kingdom Past Weather in Winchester, England, United Kingdom — Yesterday and Last 2 Weeks

Now
52 °F

Partly cloudy.


Feels Like: 50 °F
Forecast: 54 / 66 °F
Wind: 6 mph from West

Location: Middle Wallop

Current Time: Jun 29, 2016 at 4:47:44 AM

Latest Report: Jun 29, 2016 at 3:50 AM


Visibility: N/A

Pressure: 29.86 "Hg

Humidity: 94%

Dew Point: 50 °F

Location of WinchesterLocation

Past Weather in Winchester — Graph

°F

Winchester Temperature Yesterday

Maximum temperature yesterday: 66 °F (at 1:50 PM)
Minimum temperature yesterday: 48 °F (at 4:50 AM)
Average temperature yesterday: 57 °F

High & Low Weather Summary for the Past Weeks

 TemperatureHumidityPressure
High70 °F (Jun 20, 5:50 PM)100% (Jun 14, 2:50 AM)30.24 "Hg (Jun 14, 2:50 AM)
Low48 °F (Jun 19, 3:50 AM)46% (Jun 27, 3:50 PM)29.39 "Hg (Jun 14, 4:50 PM)
Average59 °F84%29.91 "Hg
* Reported Jun 14 2:50 AM — Jun 29 2:50 AM, Winchester, Weather by CustomWeather, © 2016

Note: Actual official high and low records may vary slightly from our data, if they occured in-between our weather recording intervals... More about our weather records

Advertising

Winchester Weather History for the Previous 24 Hours

Scroll right to see more
 ConditionsComfort  
Time TempWeatherWind HumidityBarometerVisibility
2:50 AM
Wed, Jun 29
52 °FPassing clouds.6 mph88%29.86 "HgN/A
1:50 AM52 °FPassing clouds.3 mph88%29.86 "HgN/A
12:50 AM54 °FPassing clouds.10 mph82%29.83 "HgN/A
11:50 PM
Tue, Jun 28
55 °FPassing clouds.15 mph77%29.83 "HgN/A
10:50 PM55 °FPassing clouds.18 mph82%29.77 "HgN/A
9:50 PM55 °FPartly sunny.18 mph77%29.74 "HgN/A
8:50 PM57 °FPartly sunny.15 mph77%29.71 "HgN/A
7:50 PM57 °FBroken clouds.14 mph94%29.71 "HgN/A
6:50 PM55 °FDrizzle. Broken clouds.15 mph100%29.74 "HgN/A
5:50 PM55 °FDrizzle. Cloudy.15 mph94%29.80 "Hg2 mi
4:50 PM57 °FBroken clouds.12 mph94%29.83 "HgN/A
3:50 PM57 °FRain. Partly sunny.12 mph88%29.86 "HgN/A
2:50 PM61 °FLight rain. Partly sunny.12 mph63%29.89 "HgN/A
1:50 PM66 °FScattered clouds.16 mph49%29.92 "HgN/A
12:50 PM64 °FScattered clouds.15 mph56%29.95 "HgN/A
11:50 AM64 °FBroken clouds.12 mph56%29.98 "HgN/A
10:50 AM63 °FScattered clouds.13 mph59%30.01 "HgN/A
9:50 AM61 °FBroken clouds.8 mph63%30.01 "HgN/A
8:50 AM61 °FPartly sunny.3 mph68%30.04 "HgN/A
7:50 AM55 °FPassing clouds.1 mph82%30.04 "HgN/A
6:50 AM52 °FFog.1 mph94%30.07 "HgN/A
5:50 AM48 °FFog.1 mph100%30.07 "HgN/A
4:50 AM48 °FClear.1 mph94%30.07 "HgN/A
Weather by CustomWeather, © 2016

See weather overviewHow to use our weather pages